Location: Unspecified
(48.8656°N, 0.0000°E)
Time: 23:16:23
(UTC+00:00)

Vanguard 1 - Pass Details

Date: 20 June 2019
Orbit: 653 x 3830 km, 34.3° (Epoch: 18 July)

Event Time Altitude Azimuth Distance (km) Brightness Sun altitude
Rises 05:06:59 0° 248° (WSW) 6,598 13.6 9.1°
Reaches altitude 10° 05:12:32 10° 241° (WSW) 5,035 13.1 9.9°
Maximum altitude 05:23:24 33° 185° (S) 2,436 12.0 11.5°
Drops below altitude 10° 05:29:59 10° 124° (ESE) 3,012 13.2 12.5°
Sets 05:32:26 0° 113° (ESE) 3,696 13.8 12.9°
